Location: Tarleton Observatory
(32.2162°N, 98.0976°W)
Time: 14:09:07
(UTC-06:00)

Daily predictions for brighter satellites

Satellite Brightness Start Highest point End
(mag) Time Altitude Azimuth Time Altitude Azimuth Time Altitude Azimuth
Milstar 3 3.2 18:07:01 10° W 18:14:00 63° S 18:20:54 10° ESE
Cosmos 2058 4.0 18:14:54 10° SE 18:18:11 23° E 18:21:27 10° NE
Cosmos 389 Rocket 3.0 18:16:02 10° NNW 18:19:34 65° W 18:23:03 10° S
COSMOS 2441 4.4 18:16:10 10° SSE 18:20:59 66° ENE 18:25:48 10° N
Cosmos 2333 Rocket 2.2 18:17:47 10° SSW 18:23:24 72° ESE 18:29:02 10° NNE
CORIOLIS 4.4 18:21:48 10° S 18:27:08 79° WSW 18:32:30 10° NNW
Atlas Centaur 2 2.8 18:22:35 10° W 18:27:42 43° SSW 18:31:49 10° SE
Cosmos 1743 Rocket 4.2 18:28:24 10° SSW 18:32:48 61° W 18:37:14 10° N
Cosmos 2219 Rocket 2.7 18:31:10 10° SSW 18:36:46 65° WNW 18:42:22 10° NNE
Cosmos 1340 Rocket 3.4 18:37:15 10° SSE 18:40:49 33° E 18:44:23 10° NNE
BREEZE-M DEB (TANK) 3.8 18:39:05 10° W 18:41:41 19° NW 18:43:28 10° N
MONITOR-E 4.4 18:39:03 10° S 18:42:12 74° W 18:45:22 10° NNW
Cosmos 1328 Rocket 4.1 18:38:42 10° NNW 18:43:06 66° W 18:47:30 10° S
Cosmos 2151 2.9 18:39:46 10° S 18:43:58 74° E 18:48:10 10° N
Cosmos 540 Rocket 3.4 18:39:46 10° SSW 18:44:56 83° ESE 18:50:07 10° NNE
Abrixas 2.4 18:42:20 10° SW 18:45:15 76° NW 18:47:20 17° NE
Cosmos 2278 Rocket 2.6 18:41:55 10° N 18:47:12 38° ENE 18:52:26 10° SE
SL-14 R/B 3.2 18:45:38 10° S 18:49:30 88° E 18:53:28 10° N
Cosmos 783 Rocket 4.5 18:44:40 10° S 18:49:55 69° ESE 18:55:13 10° NNE
Cosmos 1515 Rocket 3.8 18:45:39 10° N 18:50:07 76° W 18:54:32 10° S
Cosmos 1626 3.3 18:48:35 10° SE 18:51:33 23° E 18:52:36 20° ENE
Cosmos 1805 Rocket 4.1 18:48:08 10° SSE 18:52:13 37° E 18:56:19 10° NNE
USA 215 3.7 18:46:36 10° ESE 18:52:38 41° NE 18:58:40 10° NNW
SKYMED 2 4.2 18:48:47 10° N 18:53:03 58° WNW 18:57:18 10° SSW
Cosmos 1484 Rocket 3.4 18:50:49 10° S 18:54:38 60° W 18:58:32 10° NNW
Cosmos 1844 3.7 18:52:33 10° NNW 18:58:21 88° ENE 19:04:08 10° SSE
Cosmos 1151 Rocket 2.9 18:55:12 10° N 18:59:29 90° E 19:03:46 10° S
Haruka 3.5 18:57:52 10° W 19:01:44 80° S 19:09:16 19° E
NOAA 12 4.1 18:57:52 10° SSE 19:03:00 58° ENE 19:08:08 10° N
SEDSat Delta rocket 4.0 19:00:01 10° W 19:05:29 53° SSW 19:09:30 14° SE
ALOS 3.1 19:03:24 10° SE 19:07:18 27° ENE 19:11:13 10° NNE
Cosmos 1125 Rocket 3.4 19:02:10 10° NNW 19:07:23 77° ENE 19:12:33 10° SSE
Cosmos 2237 Rocket 2.7 19:01:58 10° SSW 19:07:29 60° WNW 19:13:04 10° NNE
Cosmos 1634 Rocket 4.4 19:01:40 10° NNW 19:07:46 66° W 19:13:50 10° S
Cosmos 44 4.3 19:04:40 10° SW 19:09:48 49° WNW 19:14:46 10° NNE
Cosmos 1300 3.1 19:08:16 10° NNW 19:12:04 63° W 19:15:50 10° S
SL-16 R/B 2.2 19:06:35 10° S 19:12:07 58° ESE 19:16:18 18° NNE
Spot 2 Rocket 4.2 19:08:26 10° SE 19:12:48 30° ENE 19:17:08 10° N
Cosmos 1726 2.8 19:10:04 10° NNW 19:13:46 56° W 19:17:27 10° S
BREEZE-M DEB (TANK) 2.2 19:14:24 10° WSW 19:15:43 45° WNW 19:15:43 45° WNW
Hubble Space Telescope 2.6 19:12:40 10° WSW 19:16:07 25° SSW 19:19:11 12° SE
Sich 1 3.3 19:11:56 10° SSE 19:16:09 44° E 19:17:56 29° NE
Cosmos 1633 Rocket 3.4 19:15:08 10° SSE 19:19:17 41° E 19:20:05 37° ENE
Cosmos 1538 Rocket 4.1 19:14:36 10° S 19:19:43 55° ESE 19:22:41 25° NE
FREGAT/IRIS 2.4 19:16:41 10° SSE 19:19:43 69° ENE 19:20:09 57° NNE
OTV 4 1.3 19:18:18 10° WNW 19:20:41 37° NNW 19:20:41 37° NNW
Lacrosse 5 rocket 3.2 19:18:14 10° N 19:19:23 15° N 19:19:23 15° N
Cosmos 2297 4.1 19:20:59 10° N 19:26:16 38° ENE 19:27:01 36° E
SL-19 R/B 4.4 19:22:13 10° SSE 19:28:11 59° ENE 19:33:48 10° N
Resurs 01 Rocket 3.5 19:31:56 17° N 19:31:56 17° N 19:33:01 10° N
USA 229 DEB 4.0 19:23:21 10° S 19:29:44 44° ESE 19:31:47 35° ENE
USA 229 4.0 19:23:28 10° S 19:29:51 43° ESE 19:31:50 35° ENE
OAO 3 Rocket 4.2 19:29:17 10° W 19:33:53 43° SSW 19:36:25 23° SSE
Aureole 2 Rocket 4.3 19:32:29 10° SW 19:35:40 32° WNW 19:38:33 13° N
Helios 1B rocket 4.1 19:39:16 22° SSE 19:39:16 22° SSE 19:40:55 10° S
Centaur AC-119 3.3 19:40:34 10° SW 19:42:53 35° SSE 19:42:53 35° SSE
Cosmos 1707 Rocket 3.4 19:41:05 10° N 19:45:25 88° E 19:49:45 10° S
Iridium 4 Rocket 3.4 19:41:03 10° S 19:44:58 53° SE 19:44:58 53° SE
SJ-6B 3.7 19:42:12 10° S 19:46:05 50° W 19:50:04 10° NNW
Cosmos 1461 3.3 19:42:05 10° SW 19:46:16 57° WNW 19:47:02 48° NNW
FengYun 1-2 T 4.1 19:43:55 10° SSE 19:49:30 82° ENE 19:55:03 10° N
Cosmos 1666 Rocket 4.0 19:46:35 10° SSW 19:50:50 60° W 19:52:39 32° NNW
H-2A ROCKET BODY 2.7 19:41:10 10° W 20:01:15 69° S 20:02:29 55° SE
FENGYUN 3A 3.7 19:58:04 10° S 20:03:24 78° WSW 20:08:47 10° NNW
Cosmos 773 Rocket 4.1 20:05:38 10° SSW 20:10:33 70° W 20:10:33 70° W
Atlas Centaur 2 4.1 20:14:11 10° SW 20:15:44 12° SSW 20:16:30 11° SSW
Cosmos 2278 Rocket 4.4 20:26:36 10° NW 20:30:57 23° W 20:35:17 10° SSW
USA 215 4.0 20:32:58 33° S 20:35:28 48° SW 20:41:46 10° NW
ALOS 4.5 20:40:59 10° SSW 20:44:39 23° W 20:48:20 10° NW
Milstar 3 4.2 20:51:01 10° W 20:57:09 34° SSW 20:57:26 33° SSW
